Location: ?????
(31.8092°N, 35.2590°E)
Time: 18:42:04
(UTC+00:00)

SJ 16-02 - Pass Details

Date: 20 June 2021
Orbit: 606 x 616 km, 75.0° (Epoch: 02 August)

Event Time Altitude Azimuth Distance (km) Brightness Sun altitude
Rises 21:36:53 0° 349° (N) 2,864 5.8 -34.7°
Reaches altitude 10° 21:39:09 10° 353° (N) 1,957 4.7 -34.8°
Enters shadow 21:40:35 20° 359° (N) 1,410 3.8 -34.8°
